THOR ABLESTAR DEB

Satellite information

Favourite Embed

Satellite Type and Status

DEBRISIN ORBIT

Key statistics

Satellite THOR ABLESTAR DEB at a glance.

Uptime

23384

Days in orbit

Revolutions

≈ 14.1

Per day

Orbit

LEO

Low Earth Orbit

Inclination

66.8

Latest

Satellite identification and parameters

Extended collection of information and parameters for THOR ABLESTAR DEB.

Object identification

Identified? True

Debris? True

Object name: THOR ABLESTAR DEB

International designator: 1961-015MU

Object number (NORAD): 48816

Object ID (CCSDS): 48816

Country: UNITED STATES OF AMERICA (US)

Current information (Y/N): Y

RCS size: SMALL

Orbital parameters

Period: 102.278 minutes

Inclination: 66.8045 deg

SMA: 7244.603 km

Apoapsis: 934.85 km

Periapsis: 798.086 km

RAAN: 54.9993 deg

Eccentricy: 0.009439

Argument of periapsis: 81.9994 deg

Mean anomaly: 279.1792 deg

Mean motion: 14.07929404 rev/day

Mean motion (dot): 0.00000872 rev/day2

B* drag term: 0.00053753 1/REarth

Two-line elements (TLE)

Creation date: July 5, 2025, 4:36 a.m.

Reference frame: TEME

Reference center: EARTH

Epoch: July 4, 2025, 9:09 p.m. UTC

TLE line 0: 0 THOR ABLESTAR DEB

TLE line 1: 1 48816U 61015MU 25185.88140306 .00000872 00000-0 53753-3 0 9994

TLE line 2: 2 48816 66.8045 54.9993 0094390 81.9994 279.1792 14.07929404596931

Live tracking on map

Real-time ground track for satellite THOR ABLESTAR DEB.

In-orbit conjunctions

A list of the most updated potential collisions computed for object THOR ABLESTAR DEB.

Target Orbit TCA Probability of collision Miss distance Type
SL-16 DEB LEO 2025-07-05 22:00:35 0.001782954 28.0 (m) DEBRIS
DELTA 1 DEB SSO 2024-10-07 13:50:09 0.0001036899 44.0 (m) DEBRIS

Associated space launch

THOR ABLESTAR DEB was lifted into orbit during the mission ‘Thor DM-21 Ablestar | Transit 4A & Injun-1 & Solrad 3’, on board a Thor DM-21 Ablestar space rocket.

The launch took place on June 29, 1961, 4:23 a.m. from Space Launch Complex 17B.

For more information about the launch, click the button.

Launch to space Thor DM-21 Ablestar | Transit 4A & Injun-1 & Solrad 3
Thor DM-21 Ablestar | Transit 4A & Injun-1 & Solrad 3

Agency: N/A

Status: Launch Successful

Launch date: June 29, 1961, 4:23 a.m. UTC

Rocket: Thor DM-21 Ablestar

Launch pad: Space Launch Complex 17B

Location: Cape Canaveral SFS, FL, USA

...

Latest news about this satellite

There are no fresh news available about this satellite. Check back as we update our databases every day.


Newsletter sign-up

Weekly statistics, charts and insights to help you stay on top of the space industry.